Location: *
(12.5665°N, 8.3471°E)
Time: 01:41:34
(UTC+00:00)

GPS 2-12 Rocket1 - Pass Details

Date: 23 September 2019
Orbit: 586 x 652 km, 20.0° (Epoch: 17 October)

Event Time Altitude Azimuth Distance (km) Brightness Sun altitude
Exits shadow 04:20:42 22° 279° (W) 1,416 4.3 -14.3°
Maximum altitude 04:23:38 53° 348° (NNW) 795 3.5 -13.5°
Drops below altitude 10° 04:28:18 10° 65° (ENE) 2,030 6.9 -12.4°
Sets 04:30:43 0° 70° (ENE) 2,932 8.1 -11.8°
